Location: Limoges
(45.8354°N, 1.2645°E)
Time: 18:42:05
(UTC+02:00)

Vanguard 2 Rocket - Pass Details

Date: 28 February 2024
Orbit: 555 x 3307 km, 32.9° (Epoch: 23 April)

Event Time Altitude Azimuth Distance (km) Brightness Sun altitude
Rises 20:18:23 0° 271° (W) 5,709 12.7 -18.0°
Reaches altitude 10° 20:22:35 10° 260° (W) 5,086 11.8 -18.7°
Maximum altitude 20:34:29 27° 211° (SSW) 4,613 10.6 -20.8°
Drops below altitude 10° 20:49:07 10° 164° (SSE) 6,256 10.9 -23.3°
Sets 20:55:15 0° 153° (SSE) 7,227 11.1 -24.3°
